Regional Weather Roundup
Issued by NWS

Home | Current Version | Previous Version | Text Only | Print | Product List | Glossary Off
Versions: 1 2 3 4 5 6 7 8 9 10 11 12 13 14 15 16 17 18 19 20 21 22 23 24 25 26 27 28 29 30 31 32 33 34 35 36 37 38 39 40 41 42 43 44 45 46 47 48 49 50

925
ASUS43 KMKX 231800
RWRWI

WISCONSIN REGIONAL WEATHER ROUNDUP
NATIONAL WEATHER SERVICE MILWAUKEE/SULLIVAN WI
1200 PM CST THU NOV 23 2017

NOTE: "FAIR" INDICATES FEW OR NO CLOUDS BELOW 12,000 FEET WITH NO
SIGNIFICANT WEATHER AND/OR OBSTRUCTIONS TO VISIBILITY.

WIZ001-002-006>008-014>016-023>028-231900-
NORTHWEST WISCONSIN

CITY           SKY/WX    TMP DP  RH WIND       PRES   REMARKS
SUPERIOR ARPT  SUNNY     33  24  68 SW10      29.87F WCI  25
6HR MIN TEMP:  18; 6HR MAX TEMP:  33;

ASHLAND        CLOUDY    35  19  52 W10       29.87F WCI  27
6HR MIN TEMP:  19; 6HR MAX TEMP:  36;

HAYWARD        SUNNY     35  20  54 SW7       29.87F WCI  29
6HR MIN TEMP:  18; 6HR MAX TEMP:  35;

SIREN          SUNNY     35  20  54 W6        29.89F WCI  30
CUMBERLAND     SUNNY     34  19  55 SW7       29.89F WCI  28
RICE LAKE      SUNNY     35  21  58 CALM      29.92F
CHETEK         SUNNY     36  21  53 CALM      29.91F
LADYSMITH      SUNNY     37  21  52 SW6       29.90F WCI  32
6HR MIN TEMP:  21; 6HR MAX TEMP:  37;

EAU CLAIRE     NOT AVBL
MENOMONIE      SUNNY     38  19  47 CALM      29.91F
6HR MIN TEMP:  19; 6HR MAX TEMP:  38;

NEW RICHMOND   SUNNY     36  19  50 CALM      29.91F
OSCEOLA        SUNNY     36  22  57 CALM      29.94F
$$

WIZ003>005-009-010-017-018-231900-
NORTH CENTRAL WISCONSIN

CITY           SKY/WX    TMP DP  RH WIND       PRES   REMARKS
MANITOWISH WTR SUNNY     33  20  60 W7        29.84F WCI  27
ARBOR VITAE    SUNNY     37  24  59 W8        29.84F WCI  30
WOODRUFF       SUNNY     37  24  59 W8        29.84F WCI  30
RHINELANDER    SUNNY     36  22  56 W10       29.85F WCI  28
6HR MIN TEMP:  23; 6HR MAX TEMP:  36;

EAGLE RIVER    SUNNY     34  20  56 W9        29.83F WCI  27
6HR MIN TEMP:  23; 6HR MAX TEMP:  34;

LAND O LAKES   SUNNY     35  20  55 W7        29.84F WCI  29
PHILLIPS       MOSUNNY   35  22  59 SW7       29.86F WCI  29
6HR MIN TEMP:  21; 6HR MAX TEMP:  35;

TOMAHAWK       SUNNY     35  19  52 SW5       29.87F WCI  31
MEDFORD        CLOUDY    34  19  55 W5        29.88F WCI  29
MERRILL        SUNNY     36  20  52 W7        29.88S WCI  31
6HR MIN TEMP:  17; 6HR MAX TEMP:  37;

$$

WIZ029-030-035-036-043>047-231900-
CENTRAL WISCONSIN

CITY           SKY/WX    TMP DP  RH WIND       PRES   REMARKS
WAUSAU         SUNNY     37  19  48 W7        29.87F WCI  32
6HR MIN TEMP:  20; 6HR MAX TEMP:  37;

MOSINEE        MOSUNNY   37  19  48 W8        29.89F WCI  31
MARSHFIELD     CLOUDY    37  18  46 NW7       29.88F WCI  32
6HR MIN TEMP:  20; 6HR MAX TEMP:  37;

STEVENS POINT  SUNNY     35  18  50 W5        29.90F WCI  30
WAUPACA        SUNNY     42  19  39 S7        29.90F
WAUTOMA        SUNNY     40  19  43 NW8       29.91F WCI  34
6HR MIN TEMP:  25; 6HR MAX TEMP:  40;

WISC RAPIDS    SUNNY     40  20  44 VRB7      29.91F
6HR MIN TEMP:  19; 6HR MAX TEMP:  40;

CAMP DOUGLAS   SUNNY     41  19  40 W7        29.91F
6HR MIN TEMP:  21; 6HR MAX TEMP:  42;

$$

WIZ011>013-019>022-031-037>040-048>050-231900-
NORTHEAST WISCONSIN

CITY           SKY/WX    TMP DP  RH WIND       PRES   REMARKS
ANTIGO         SUNNY     34  19  54 W9        29.86F WCI  27
SHAWANO        SUNNY     40  19  42 W6        29.88F
6HR MIN TEMP:  28; 6HR MAX TEMP:  41;

OCONTO         SUNNY     38  19  47 W8        29.89F WCI  32
STURGEON BAY   SUNNY     37  20  50 W8        29.89F WCI  31
6HR MIN TEMP:  29; 6HR MAX TEMP:  37;

GREEN BAY      SUNNY     39  22  50 W6        29.89F WCI  35
6HR MIN TEMP:  27; 6HR MAX TEMP:  40;

MANITOWOC      SUNNY     39  20  46 SW9       29.91F WCI  33
6HR MIN TEMP:  29; 6HR MAX TEMP:  40;

APPLETON       MOSUNNY   37  16  41 W6        29.88F WCI  33
CLINTONVILLE   SUNNY     37  18  44 W5        29.90S WCI  34
OSHKOSH        SUNNY     39  21  48 W6        29.89F WCI  35
6HR MIN TEMP:  30; 6HR MAX TEMP:  39;

$$

WIZ032>034-041-042-053>061-231900-
SOUTHWEST WISCONSIN

CITY           SKY/WX    TMP DP  RH WIND       PRES   REMARKS
LA CROSSE      SUNNY     40  20  44 VRB5      29.94S
6HR MIN TEMP:  25; 6HR MAX TEMP:  40;

SPARTA         SUNNY     39  21  49 NW5       29.94S
VIROQUA        SUNNY     39  24  54 W3        29.91S
6HR MIN TEMP:  26; 6HR MAX TEMP:  39;

BOSCOBEL       SUNNY     42  20  41 CALM      29.94F
6HR MIN TEMP:  24; 6HR MAX TEMP:  42;

PRAIRIE DU CHI SUNNY     40  20  45 NW3       29.94F
PLATTEVILLE    SUNNY     39  24  53 SW3       29.93F
$$

WIZ056-057-062-063-064-067-068-231900-
SOUTH CENTRAL WISCONSIN

CITY           SKY/WX    TMP DP  RH WIND       PRES   REMARKS
REEDSBURG      SUNNY     39  20  47 CALM      29.91F
BARABOO/DELLS  SUNNY     39  19  44 CALM      29.91F
LONE ROCK      NOT AVBL
MINERAL POINT  SUNNY     41  23  48 W5        29.92F
MADISON        MOSUNNY   40  21  46 CALM      29.91F
6HR MIN TEMP:  31; 6HR MAX TEMP:  40;

MIDDLETON      SUNNY     42  20  41 W6        29.93S
WATERTOWN      SUNNY     39  22  49 SW8       29.92F WCI  34
MONROE         SUNNY     39  21  48 W5        29.92F
JANESVILLE     SUNNY     43  21  42 SW5       29.92F
$$

WIZ051-052-058>065-066-070>072-231900-
SOUTHEAST WISCONSIN

CITY           SKY/WX    TMP DP  RH WIND       PRES   REMARKS
MILWAUKEE      MOSUNNY   42  22  44 W10       29.93F
6HR MIN TEMP:  33; 6HR MAX TEMP:  42;

WAUKESHA       SUNNY     39  21  48 W7        29.93S WCI  34
MILWAUKEE/TIMM SUNNY     41  18  38 SW9       29.93F
RACINE         SUNNY     43  23  45 SW10      29.94F
6HR MIN TEMP:  32; 6HR MAX TEMP:  43;

BURLINGTON     SUNNY     43  28  54 SW8       29.93F
KENOSHA        SUNNY     42  22  44 SW12      29.92F
6HR MIN TEMP:  33; 6HR MAX TEMP:  43;

FOND DU LAC    SUNNY     40  20  44 SW8       29.91F WCI  34
6HR MIN TEMP:  32; 6HR MAX TEMP:  40;

SHEBOYGAN      SUNNY     40  22  48 W6        29.90F
6HR MIN TEMP:  29; 6HR MAX TEMP:  41;

WEST BEND      MOSUNNY   37  21  52 W7        29.92F WCI  32
JUNEAU         MOSUNNY   37  21  52 SW5       29.93F WCI  34
$$

LSZ147-162-231900-
LAKE SUPERIOR

STATION/POSITION TIME  TEMP    WIND        PRES    WAVE
                       AIR SEA DIR/SP/G            HT/PER
                 (UTC) (F)     (DEG/KT/KT) (MB)    (FT/S)
DEVILS ISLAND    1700   31     260/ 18/ 23 1012.6R
SAXON HARBOR     1740   35     250/  6/ 13 1011.2F
$$

LMZ867-665-643>646-231900-
LAKE MICHIGAN

STATION/POSITION TIME  TEMP    WIND        PRES    WAVE
                       AIR SEA DIR/SP/G            HT/PER
                 (UTC) (F)     (DEG/KT/KT) (MB)    (FT/S)
N MID LAKE BUOY  1650   35 47  250/ 16/ 19 1013.5F   3/ 5
NORTHPORT PIER   1740   36     230/  6/ 10 1011.9F
KEWAUNEE LAKESHO 1730   38     290/  8/ 12 1011.9F
SHEBOYGAN LAKESH 1700   37     250/  7/ 10 1014.2F
PORT WASHINGTON  1740   40     270/  7/  9 1014.6F
MILWAUKEE LAKESH 1730   40     240/  7/  8   N/A
S MID LAKE BUOY  1650   39 47  250/ 17/ 21 1015.2F   4/ 5
KENOSHA   LAKESH 1700   40     230/ 11/ 15 1014.2
$$

TC  - TEMPERATURE IN CELSIUS
VSB - VISIBILITY IN STATUTE MILES
WCI - WIND CHILL INDEX
HX  - HEAT INDEX





USA.gov is the U.S. government's official web portal to all federal, state and local government web resources and services.